Time,TemperatureF,DewpointF,PressureIn,WindDirection,WindDirectionDegrees,WindSpeedMPH,WindSpeedGustMPH,Humidity,HourlyPrecipIn,Conditions,Clouds,dailyrainin,SoftwareType,DateUTC
2013-04-05 00:02:00,52.0,51.0,29.93,West,278,5.0,15.0,95,0.00,,,0.48,,2013-04-05 07:02:00,
2013-04-05 00:12:00,52.0,51.0,29.93,West,278,5.0,15.0,95,0.00,,,0.48,,2013-04-05 07:12:00,
2013-04-05 00:22:00,52.0,51.0,29.95,SSE,147,10.0,20.0,95,0.00,,,0.48,,2013-04-05 07:22:00,
2013-04-05 00:32:00,53.0,52.0,29.94,West,260,5.0,17.0,95,0.00,,,0.48,,2013-04-05 07:32:00,
2013-04-05 00:42:00,53.0,52.0,29.94,West,260,5.0,17.0,95,0.00,,,0.48,,2013-04-05 07:42:00,
2013-04-05 00:52:00,53.0,52.0,29.95,SSW,205,8.0,18.0,95,0.00,,,0.48,,2013-04-05 07:52:00,
2013-04-05 01:02:00,53.0,52.0,29.96,South,175,11.0,22.0,95,0.00,,,0.48,,2013-04-05 08:02:00,
2013-04-05 01:12:00,53.0,52.0,29.96,South,175,11.0,22.0,95,0.00,,,0.48,,2013-04-05 08:12:00,
2013-04-05 01:22:00,53.0,52.0,29.96,South,169,9.0,19.0,95,0.01,,,0.49,,2013-04-05 08:22:00,
2013-04-05 01:32:00,53.0,52.0,29.96,South,169,9.0,19.0,95,0.01,,,0.49,,2013-04-05 08:32:00,
2013-04-05 01:41:00,52.0,51.0,29.97,SW,215,9.0,19.0,95,0.01,,,0.49,,2013-04-05 08:41:00,
2013-04-05 01:42:00,53.0,52.0,29.96,South,169,9.0,19.0,95,0.01,,,0.49,,2013-04-05 08:42:00,
2013-04-05 01:52:00,52.0,51.0,29.96,SE,134,5.0,12.0,95,0.01,,,0.49,,2013-04-05 08:52:00,
2013-04-05 02:02:00,52.0,51.0,29.97,SW,215,9.0,19.0,95,0.01,,,0.49,,2013-04-05 09:02:00,
2013-04-05 02:12:00,52.0,51.0,29.97,SW,215,9.0,19.0,95,0.01,,,0.49,,2013-04-05 09:12:00,
2013-04-05 02:22:00,52.0,51.0,29.97,SW,215,9.0,19.0,95,0.01,,,0.49,,2013-04-05 09:22:00,
2013-04-05 02:32:00,52.0,51.0,29.97,SW,215,9.0,19.0,95,0.01,,,0.49,,2013-04-05 09:32:00,
2013-04-05 02:53:00,52.0,51.0,29.97,West,271,7.0,20.0,95,0.00,,,0.49,,2013-04-05 09:53:00,
2013-04-05 03:02:00,52.0,51.0,29.97,SW,215,9.0,19.0,95,0.00,,,0.49,,2013-04-05 10:02:00,
2013-04-05 03:12:00,52.0,51.0,29.97,SW,215,9.0,19.0,95,0.00,,,0.49,,2013-04-05 10:12:00,
2013-04-05 03:23:00,52.0,51.0,29.97,WSW,245,4.0,22.0,95,0.00,,,0.49,,2013-04-05 10:23:00,
2013-04-05 03:32:00,52.0,51.0,29.98,SSE,150,4.0,15.0,95,0.00,,,0.48,,2013-04-05 10:32:00,
2013-04-05 03:42:00,52.0,51.0,29.98,SSE,150,4.0,15.0,95,0.00,,,0.48,,2013-04-05 10:42:00,
2013-04-05 03:52:00,52.0,51.0,29.98,South,178,5.0,17.0,95,0.01,,,0.49,,2013-04-05 10:52:00,
2013-04-05 04:02:00,52.0,51.0,29.98,South,169,9.0,16.0,95,0.01,,,0.49,,2013-04-05 11:02:00,
2013-04-05 04:12:00,52.0,51.0,29.98,South,169,9.0,16.0,95,0.01,,,0.49,,2013-04-05 11:12:00,
2013-04-05 04:21:00,52.0,51.0,29.99,South,183,9.0,21.0,95,0.01,,,0.49,,2013-04-05 11:21:00,
2013-04-05 04:32:00,52.0,51.0,30.00,SSW,200,8.0,21.0,96,0.01,,,0.48,,2013-04-05 11:32:00,
2013-04-05 04:42:00,52.0,51.0,30.00,SSW,200,8.0,21.0,96,0.01,,,0.48,,2013-04-05 11:42:00,
2013-04-05 04:52:00,52.0,51.0,29.99,SSW,200,4.0,12.0,96,0.00,,,0.48,,2013-04-05 11:52:00,
2013-04-05 05:02:00,52.0,51.0,29.99,WNW,293,7.0,15.0,95,0.00,,,0.48,,2013-04-05 12:02:00,
2013-04-05 05:11:00,52.0,51.0,29.99,WNW,293,7.0,15.0,95,0.00,,,0.48,,2013-04-05 12:11:00,
2013-04-05 05:22:00,52.0,51.0,29.99,SSE,149,3.0,16.0,96,0.00,,,0.48,,2013-04-05 12:22:00,
2013-04-05 05:32:00,52.0,51.0,29.99,West,280,6.0,17.0,95,0.00,,,0.47,,2013-04-05 12:32:00,
2013-04-05 05:42:00,52.0,51.0,29.99,West,280,6.0,17.0,95,0.00,,,0.47,,2013-04-05 12:42:00,
2013-04-05 05:52:00,52.0,51.0,29.98,SSE,163,4.0,14.0,95,0.00,,,0.47,,2013-04-05 12:52:00,
2013-04-05 06:02:00,52.0,51.0,29.99,WSW,245,7.0,22.0,95,0.00,,,0.47,,2013-04-05 13:02:00,
2013-04-05 06:12:00,52.0,51.0,29.99,WSW,245,7.0,22.0,95,0.00,,,0.47,,2013-04-05 13:12:00,
2013-04-05 06:22:00,52.0,51.0,29.99,SSW,194,6.0,15.0,95,0.00,,,0.47,,2013-04-05 13:22:00,
2013-04-05 06:32:00,52.0,51.0,29.99,SE,132,7.0,18.0,95,0.00,,,0.43,,2013-04-05 13:32:00,
2013-04-05 06:42:00,52.0,51.0,29.99,SE,132,7.0,18.0,95,0.00,,,0.43,,2013-04-05 13:42:00,
2013-04-05 06:52:00,52.0,51.0,29.99,SSW,193,4.0,15.0,95,0.00,,,0.43,,2013-04-05 13:52:00,
2013-04-05 07:02:00,52.0,51.0,29.99,SE,141,7.0,15.0,95,0.00,,,0.43,,2013-04-05 14:02:00,
2013-04-05 07:12:00,52.0,51.0,29.99,SE,141,7.0,15.0,95,0.00,,,0.43,,2013-04-05 14:12:00,
2013-04-05 07:22:00,52.0,51.0,29.99,SE,141,7.0,15.0,95,0.00,,,0.43,,2013-04-05 14:22:00,
2013-04-05 07:36:00,52.0,51.0,30.00,East,82,4.0,10.0,95,0.00,,,0.37,,2013-04-05 14:36:00,
2013-04-05 07:42:00,52.0,51.0,30.00,East,82,4.0,10.0,95,0.00,,,0.37,,2013-04-05 14:42:00,
2013-04-05 07:53:00,52.0,50.0,30.00,West,276,4.0,15.0,94,0.00,,,0.37,,2013-04-05 14:53:00,
2013-04-05 08:02:00,52.0,50.0,30.00,SE,124,4.0,22.0,94,0.00,,,0.37,,2013-04-05 15:02:00,
2013-04-05 08:11:00,52.0,50.0,30.00,SE,124,4.0,22.0,94,0.00,,,0.37,,2013-04-05 15:11:00,
2013-04-05 08:22:00,52.0,50.0,30.00,SW,219,4.0,15.0,94,0.00,,,0.37,,2013-04-05 15:22:00,
2013-04-05 08:33:00,52.0,50.0,30.01,SSE,165,8.0,17.0,94,0.00,,,0.31,,2013-04-05 15:33:00,
2013-04-05 08:42:00,52.0,50.0,30.01,SSE,165,8.0,17.0,94,0.00,,,0.31,,2013-04-05 15:42:00,
2013-04-05 08:52:00,52.0,50.0,30.01,WNW,298,7.0,15.0,94,0.00,,,0.31,,2013-04-05 15:52:00,
2013-04-05 09:02:00,52.0,51.0,30.01,SSW,205,5.0,18.0,95,0.01,,,0.32,,2013-04-05 16:02:00,
2013-04-05 09:13:00,52.0,51.0,30.01,SSW,205,5.0,18.0,95,0.01,,,0.32,,2013-04-05 16:13:00,
2013-04-05 09:22:00,51.0,50.0,30.01,West,261,4.0,16.0,95,0.01,,,0.32,,2013-04-05 16:22:00,
2013-04-05 09:32:00,51.0,50.0,30.01,West,261,4.0,16.0,95,0.01,,,0.32,,2013-04-05 16:32:00,
2013-04-05 09:42:00,51.0,50.0,30.01,West,261,4.0,16.0,95,0.01,,,0.32,,2013-04-05 16:42:00,
2013-04-05 09:52:00,51.0,50.0,30.01,SE,132,5.0,13.0,95,0.01,,,0.27,,2013-04-05 16:52:00,
2013-04-05 10:02:00,52.0,51.0,30.00,ENE,69,5.0,13.0,95,0.00,,,0.27,,2013-04-05 17:02:00,
2013-04-05 10:12:00,52.0,51.0,30.00,ENE,69,5.0,13.0,95,0.00,,,0.27,,2013-04-05 17:12:00,
2013-04-05 10:22:00,52.0,50.0,30.01,SSE,151,4.0,15.0,94,0.00,,,0.27,,2013-04-05 17:22:00,
2013-04-05 10:32:00,52.0,50.0,30.01,East,98,4.0,17.0,93,0.00,,,0.21,,2013-04-05 17:32:00,
2013-04-05 10:44:00,52.0,50.0,30.01,East,98,4.0,17.0,93,0.00,,,0.21,,2013-04-05 17:44:00,
2013-04-05 10:51:00,52.0,50.0,30.02,South,191,5.0,17.0,92,0.00,,,0.21,,2013-04-05 17:51:00,
2013-04-05 11:02:00,52.0,50.0,30.02,WSW,246,4.0,17.0,92,0.00,,,0.21,,2013-04-05 18:02:00,
2013-04-05 11:12:00,52.0,50.0,30.02,WSW,246,4.0,17.0,92,0.00,,,0.21,,2013-04-05 18:12:00,
2013-04-05 11:22:00,52.0,50.0,30.02,SSW,209,3.0,14.0,93,0.00,,,0.21,,2013-04-05 18:22:00,
2013-04-05 11:32:00,52.0,50.0,30.02,SE,143,6.0,16.0,93,0.01,,,0.17,,2013-04-05 18:32:00,
2013-04-05 11:42:00,52.0,50.0,30.02,SE,143,6.0,16.0,93,0.01,,,0.17,,2013-04-05 18:42:00,
2013-04-05 11:52:00,52.0,50.0,30.02,South,184,3.0,17.0,94,0.01,,,0.17,,2013-04-05 18:52:00,
2013-04-05 12:02:00,52.0,50.0,30.03,SW,217,4.0,19.0,94,0.01,,,0.17,,2013-04-05 19:02:00,
2013-04-05 12:12:00,52.0,50.0,30.03,SW,217,4.0,19.0,94,0.01,,,0.17,,2013-04-05 19:12:00,
2013-04-05 12:22:00,52.0,50.0,30.03,NW,304,7.0,17.0,93,0.01,,,0.17,,2013-04-05 19:22:00,
2013-04-05 12:32:00,52.0,50.0,30.03,NW,304,7.0,17.0,93,0.01,,,0.17,,2013-04-05 19:32:00,
2013-04-05 12:41:00,52.0,50.0,30.03,NW,304,7.0,17.0,93,0.01,,,0.17,,2013-04-05 19:41:00,
2013-04-05 12:52:00,52.0,50.0,30.03,NW,304,7.0,17.0,93,0.01,,,0.17,,2013-04-05 19:52:00,
2013-04-05 13:22:00,52.0,50.0,30.03,NNE,25,6.0,14.0,93,0.00,,,0.14,,2013-04-05 20:22:00,
2013-04-05 13:42:00,52.0,50.0,30.03,NNE,25,6.0,14.0,93,0.00,,,0.14,,2013-04-05 20:42:00,
2013-04-05 13:52:00,53.0,51.0,30.02,SSE,148,8.0,18.0,92,0.00,,,0.07,,2013-04-05 20:52:00,
2013-04-05 14:02:00,52.0,50.0,30.02,South,170,6.0,17.0,93,0.01,,,0.08,,2013-04-05 21:02:00,
2013-04-05 14:12:00,52.0,50.0,30.02,South,170,6.0,17.0,93,0.01,,,0.08,,2013-04-05 21:12:00,
2013-04-05 14:22:00,52.0,50.0,30.02,SE,145,7.0,21.0,93,0.03,,,0.10,,2013-04-05 21:22:00,
2013-04-05 14:32:00,52.0,50.0,30.02,West,263,8.0,21.0,94,0.05,,,0.11,,2013-04-05 21:32:00,
2013-04-05 14:42:00,52.0,50.0,30.02,West,263,8.0,21.0,94,0.05,,,0.11,,2013-04-05 21:42:00,
2013-04-05 14:52:00,52.0,50.0,30.03,WSW,254,8.0,20.0,94,0.07,,,0.13,,2013-04-05 21:52:00,
2013-04-05 15:02:00,52.0,50.0,30.02,West,274,8.0,23.0,94,0.07,,,0.14,,2013-04-05 22:02:00,
2013-04-05 15:12:00,52.0,50.0,30.02,West,274,8.0,23.0,94,0.07,,,0.14,,2013-04-05 22:12:00,
2013-04-05 15:22:00,52.0,50.0,30.01,SSW,196,9.0,20.0,94,0.06,,,0.15,,2013-04-05 22:22:00,
2013-04-05 15:32:00,52.0,50.0,30.01,East,100,3.0,16.0,94,0.06,,,0.16,,2013-04-05 22:32:00,
2013-04-05 15:42:00,52.0,50.0,30.01,East,100,3.0,16.0,94,0.06,,,0.16,,2013-04-05 22:42:00,
2013-04-05 15:52:00,52.0,50.0,30.01,SSW,202,5.0,22.0,94,0.06,,,0.18,,2013-04-05 22:52:00,
2013-04-05 16:02:00,52.0,50.0,29.99,SSE,168,9.0,21.0,94,0.07,,,0.20,,2013-04-05 23:02:00,
2013-04-05 16:12:00,52.0,50.0,29.99,SSE,168,9.0,21.0,94,0.07,,,0.20,,2013-04-05 23:12:00,
2013-04-05 16:22:00,52.0,50.0,30.00,SSE,165,5.0,25.0,94,0.07,,,0.21,,2013-04-05 23:22:00,
2013-04-05 16:32:00,52.0,50.0,30.01,SE,138,8.0,25.0,94,0.05,,,0.22,,2013-04-05 23:32:00,
2013-04-05 16:42:00,52.0,50.0,30.01,SE,138,8.0,25.0,94,0.05,,,0.22,,2013-04-05 23:42:00,
2013-04-05 16:52:00,52.0,50.0,29.99,SE,140,9.0,31.0,94,0.04,,,0.23,,2013-04-05 23:52:00,
2013-04-05 17:02:00,52.0,50.0,29.98,South,188,8.0,22.0,94,0.04,,,0.24,,2013-04-06 00:02:00,
2013-04-05 17:12:00,52.0,50.0,29.98,South,188,8.0,22.0,94,0.04,,,0.24,,2013-04-06 00:12:00,
2013-04-05 17:22:00,52.0,50.0,29.98,South,188,8.0,22.0,94,0.04,,,0.24,,2013-04-06 00:22:00,
2013-04-05 17:32:00,52.0,50.0,29.97,SW,217,9.0,20.0,93,0.03,,,0.25,,2013-04-06 00:32:00,
2013-04-05 17:42:00,52.0,50.0,29.97,SW,217,9.0,20.0,93,0.03,,,0.25,,2013-04-06 00:42:00,
2013-04-05 17:52:00,53.0,51.0,29.96,SSE,147,7.0,22.0,93,0.03,,,0.26,,2013-04-06 00:52:00,
2013-04-05 18:02:00,53.0,51.0,29.94,SE,130,7.0,13.0,92,0.02,,,0.26,,2013-04-06 01:02:00,
2013-04-05 18:12:00,53.0,51.0,29.94,SE,130,7.0,13.0,92,0.02,,,0.26,,2013-04-06 01:12:00,
2013-04-05 18:22:00,54.0,51.0,29.95,SSE,153,7.0,16.0,91,0.02,,,0.26,,2013-04-06 01:22:00,
2013-04-05 18:32:00,54.0,51.0,29.94,WSW,255,5.0,15.0,90,0.01,,,0.26,,2013-04-06 01:32:00,
2013-04-05 18:42:00,54.0,51.0,29.94,WSW,255,5.0,15.0,90,0.01,,,0.26,,2013-04-06 01:42:00,
2013-04-05 18:52:00,54.0,51.0,29.93,SE,130,2.0,18.0,90,0.00,,,0.26,,2013-04-06 01:52:00,
2013-04-05 19:02:00,53.0,50.0,29.92,SE,137,3.0,15.0,91,0.00,,,0.26,,2013-04-06 02:02:00,
2013-04-05 19:12:00,53.0,50.0,29.92,SE,137,3.0,15.0,91,0.00,,,0.26,,2013-04-06 02:12:00,
2013-04-05 19:22:00,53.0,50.0,29.91,South,189,2.0,18.0,91,0.01,,,0.27,,2013-04-06 02:22:00,
2013-04-05 19:32:00,53.0,50.0,29.92,South,186,8.0,21.0,91,0.04,,,0.30,,2013-04-06 02:32:00,
2013-04-05 19:42:00,53.0,50.0,29.92,South,186,8.0,21.0,91,0.04,,,0.30,,2013-04-06 02:42:00,
2013-04-05 19:52:00,53.0,50.0,29.91,SSE,165,7.0,15.0,91,0.05,,,0.31,,2013-04-06 02:52:00,
2013-04-05 20:02:00,53.0,51.0,29.90,SW,236,9.0,27.0,92,0.06,,,0.32,,2013-04-06 03:02:00,
2013-04-05 20:12:00,53.0,51.0,29.90,SW,236,9.0,27.0,92,0.06,,,0.32,,2013-04-06 03:12:00,
2013-04-05 20:22:00,53.0,51.0,29.90,West,259,5.0,15.0,92,0.06,,,0.34,,2013-04-06 03:22:00,
2013-04-05 20:33:00,53.0,51.0,29.90,North,355,7.0,26.0,92,0.05,,,0.34,,2013-04-06 03:33:00,
2013-04-05 20:42:00,53.0,51.0,29.90,North,355,7.0,26.0,92,0.05,,,0.34,,2013-04-06 03:42:00,
2013-04-05 20:53:00,53.0,51.0,29.88,South,188,4.0,20.0,92,0.06,,,0.36,,2013-04-06 03:53:00,
2013-04-05 21:03:00,53.0,51.0,29.88,South,188,4.0,20.0,92,0.06,,,0.36,,2013-04-06 04:03:00,
2013-04-05 21:13:00,53.0,51.0,29.88,South,188,4.0,20.0,92,0.06,,,0.36,,2013-04-06 04:13:00,
2013-04-05 21:22:00,54.0,51.0,29.88,ESE,115,7.0,28.0,91,0.04,,,0.37,,2013-04-06 04:22:00,
2013-04-05 21:32:00,53.0,51.0,29.88,NNW,327,7.0,18.0,92,0.04,,,0.38,,2013-04-06 04:32:00,
2013-04-05 21:42:00,53.0,51.0,29.88,NNW,327,7.0,18.0,92,0.04,,,0.38,,2013-04-06 04:42:00,
2013-04-05 21:52:00,53.0,51.0,29.88,NNW,327,7.0,18.0,92,0.04,,,0.38,,2013-04-06 04:52:00,
2013-04-05 22:02:00,53.0,51.0,29.90,ESE,112,6.0,22.0,92,0.05,,,0.42,,2013-04-06 05:02:00,
2013-04-05 22:12:00,53.0,51.0,29.90,ESE,112,6.0,22.0,92,0.05,,,0.42,,2013-04-06 05:12:00,
2013-04-05 22:22:00,53.0,51.0,29.91,SSW,213,10.0,23.0,93,0.08,,,0.45,,2013-04-06 05:22:00,
2013-04-05 22:32:00,53.0,51.0,29.90,WNW,287,9.0,26.0,93,0.10,,,0.48,,2013-04-06 05:32:00,
2013-04-05 22:42:00,53.0,51.0,29.90,WNW,287,9.0,26.0,93,0.10,,,0.48,,2013-04-06 05:42:00,
2013-04-05 22:51:00,53.0,51.0,29.91,ENE,76,10.0,21.0,93,0.11,,,0.50,,2013-04-06 05:51:00,
2013-04-05 23:02:00,52.0,50.0,29.91,West,270,9.0,26.0,94,0.09,,,0.51,,2013-04-06 06:02:00,
2013-04-05 23:11:00,52.0,50.0,29.91,West,270,9.0,26.0,94,0.09,,,0.51,,2013-04-06 06:11:00,
2013-04-05 23:22:00,53.0,51.0,29.92,ENE,63,9.0,30.0,94,0.06,,,0.51,,2013-04-06 06:22:00,
2013-04-05 23:32:00,52.0,50.0,29.93,South,185,10.0,24.0,94,0.03,,,0.51,,2013-04-06 06:32:00,
2013-04-05 23:42:00,52.0,50.0,29.93,South,185,10.0,24.0,94,0.03,,,0.51,,2013-04-06 06:42:00,
2013-04-05 23:52:00,52.0,50.0,29.93,West,267,10.0,26.0,94,0.01,,,0.51,,2013-04-06 06:52:00,